Regional Weather Roundup
Issued by NWS Sioux Falls, SD

Home | Current Version | Previous Version | Text Only | Print | Product List | Glossary Off
Versions: 1 2 3 4 5 6 7 8 9 10 11 12 13 14 15 16 17 18 19 20 21 22 23 24 25 26 27 28 29 30 31 32 33 34 35 36 37 38 39 40 41 42 43 44 45 46 47 48 49 50

000
ASUS43 KFSD 280802
RWRFSD

WEATHER ROUNDUP FOR SE SOUTH DAKOTA/SW MINNESOTA/NW IOWA
NATIONAL WEATHER SERVICE SIOUX FALLS SD
300 AM CDT FRI AUG 28 2015

NOTE: "FAIR" INDICATES FEW OR NO CLOUDS BELOW 12,000 FEET WITH NO
SIGNIFICANT WEATHER AND OR OBSTRUCTIONS TO VISIBILITY.


SDZ038>040-050-052>070-280900-
SOUTHEAST SOUTH DAKOTA

CITY           SKY/WX    TMP DP  RH WIND       PRES   REMARKS
BROOKINGS      CLOUDY    64  61  88 SE8       29.95F
CHAMBERLAIN    NOT AVBL
HURON          CLOUDY    67  64  90 SE6       29.91S
MADISON        LGT RAIN  64  64 100 SE8       29.95S
MITCHELL       CLOUDY    67  66  97 E3        29.91S
SIOUX FALLS    CLOUDY    66  64  93 SE12      29.92F
WINNER         CLOUDY    69  66  90 E14       29.88F
YANKTON        CLOUDY    64  64 100 E12G17    29.86F
$$

MNZ071-072-080-081-089-090-097-098-280900-
SOUTHWEST MINNESOTA

CITY           SKY/WX    TMP DP  RH WIND       PRES   REMARKS
FAIRMONT       CLOUDY    63  57  82 S9        30.00F
JACKSON        LGT RAIN  63  63 100 SE12      30.00F
LUVERNE        LGT RAIN  64  63  94 S14       29.93F
MARSHALL       CLOUDY    64  57  77 S8        29.96F
MONTEVIDEO     PTCLDY    61  61 100 CALM      29.98R
PIPESTONE      CLOUDY    64  63  94 S8        29.94F
REDWOOD FALLS  CLOUDY    61  60  97 S3        29.95F
TRACY          CLOUDY    66  64  94 S12       29.97S
WINDOM         CLOUDY    64  63  94 S9G17     29.98F
WORTHINGTON    CLOUDY    63  57  82 SE14G22   29.96F
$$

IAZ001>003-012>014-020>022-031-032-NEZ013-014-SDZ071-280900-
NORTHWEST IOWA

CITY           SKY/WX    TMP DP  RH WIND       PRES   REMARKS
DENISON        LGT RAIN  64  63  94 SE12G17   29.94F
ESTHERVILLE    CLOUDY    62  61  96 SE9       30.00F
SIOUX CITY     HVY RAIN  66  63  90 E18G25    29.88F FOG
SPENCER        LGT RAIN  64  61  90 SE10      29.99F FOG
$$

ABBREVIATIONS USED IN REMARKS
   TC - TEMPERATURE IN CELSIUS
  WCI - WIND CHILL INDEX
   HX - HEAT INDEX
  VSB - VISIBILITY



USA.gov is the U.S. government's official web portal to all federal, state and local government web resources and services.